Location: Buffign�court
(47.8126°N, 6.0176°E)
Time: 20:42:18
(UTC+00:00)

BREEZE-M DEB (TANK) - Pass Details

Date: 16 June 2021
Orbit: 331 x 16576 km, 49.3° (Epoch: 22 July)

Event Time Altitude Azimuth Distance (km) Brightness Sun altitude
Rises 22:48:45 0° 237° (WSW) 7,202 7.8 -18.0°
Reaches altitude 10° 22:55:28 10° 235° (SW) 4,348 6.6 -18.2°
Maximum altitude 23:03:45 56° 160° (SSE) 829 2.8 -18.4°
Drops below altitude 10° 23:06:42 10° 79° (E) 1,580 4.7 -18.5°
Sets 23:08:05 0° 74° (ENE) 2,248 5.6 -18.5°
